[[{"header":{"parameterUnit":"m.s-1","parameterCategory":1,"la1":30.2991,"la2":30.254,"lo1":-89.0895,"lo2":-89.0444,"dy":0.0017,"dx":0.0017,"nx":28,"ny":28,"refTime":"2024-03-11T03:00:00:Z","depth":0,"parameterNumber":2,"parameterNumberName":"U-component_of_WINDS"},"data":[0,0,0,0,0,0,0,0,0,0,0,0,0,0,0,0,0,0,0,0,0,0,0,0,0,0,0,0,0,0,0,0,0,0,0,0,0,0,0,0,0,0,0,0,0,0,0,0,0,0,0,0,0,0,0,0,0,0,-1.1738,-1.1738,0,-1.1773,-1.1774,-1.1774,-1.1742,-1.1741,-1.1739,-1.1738,-1.1777,-1.1779,-1.1781,0,0,0,0,0,0,0,0,0,0,0,0,0,-1.1645,-1.1647,-1.1738,-1.1738,-1.1739,-1.1773,-1.1774,-1.1774,-1.1742,-1.1741,-1.1739,-1.1738,-1.1776,-1.1779,-1.1781,0,0,0,0,0,0,0,0,0,0,0,0,0,-1.1683,-1.1647,-1.1738,-1.1727,-1.1726,-1.1773,-1.1774,-1.1774,-1.1743,-1.1741,-1.1739,-1.1737,-1.1775,-1.1778,-1.1782,-1.1842,0,0,-1.1792,-1.1793,0,0,0,0,0,0,0,0,-1.1681,-1.1687,-1.1728,-1.1728,-1.1727,-1.1751,-1.1755,-1.1797,-1.1743,-1.1737,-1.1738,-1.1736,-1.177,-1.1774,-1.1785,-1.1843,-1.1845,-1.1792,-1.1794,-1.1796,-1.1797,0,0,0,0,0,0,0,-1.1679,-1.1685,-1.1752,-1.1729,-1.1728,-1.1721,-1.1724,-1.1763,-1.1764,-1.1737,-1.1735,-1.1739,-1.1769,-1.1781,-1.1785,-1.1846,-1.1792,-1.1795,-1.1797,-1.1798,-1.1955,-1.1957,0,0,0,0,0,0,-1.1677,-1.1683,-1.1751,-1.1753,-1.1699,-1.1724,-1.1728,-1.1746,-1.1763,-1.1764,-1.1741,-1.1738,-1.1777,-1.1781,-1.1786,-1.1858,-1.1796,-1.1799,-1.1801,-1.1953,-1.1956,-1.1958,0,0,0,0,0,0,-1.1675,-1.1683,-1.1749,-1.1717,-1.1725,-1.1728,-1.1748,-1.1747,-1.1759,-1.1766,-1.1766,-1.1753,-1.1775,-1.1782,-1.1828,-1.1859,-1.18,-1.1803,-1.1951,-1.1954,-1.1957,-1.2001,0,0,0,0,0,0,-1.1672,-1.1683,-1.1705,-1.1718,-1.1727,-1.179,-1.175,-1.1749,-1.1765,-1.1761,-1.1778,-1.1779,-1.1774,-1.1823,-1.1831,-1.1862,-1.1806,-1.1948,-1.1952,-1.1956,-1.1997,-1.2005,-1.2013,0,0,0,0,0,-1.1669,-1.1717,-1.1706,-1.1715,-1.1755,-1.1792,-1.1797,-1.179,-1.1768,-1.179,-1.1795,-1.1778,-1.1854,-1.1828,-1.1837,-1.187,-1.1946,-1.1951,-1.1956,-1.1993,-1.2004,-1.2013,0,0,0,0,0,0,-1.1708,-1.1718,-1.1707,-1.176,-1.1775,-1.1786,-1.1815,-1.1802,-1.1824,-1.182,-1.1811,-1.1815,-1.1864,-1.1871,-1.1842,-1.1928,-1.1896,-1.1903,-1.1922,-1.1932,-1.194,-1.1937,-1.1809,0,0,0,0,0,-1.1723,-1.1751,-1.1758,-1.1805,-1.1813,-1.1813,-1.1828,-1.1822,-1.1837,-1.1844,-1.1852,-1.1868,-1.1896,-1.1914,-1.194,-1.1998,-1.2001,-1.2024,-1.2032,-1.2039,-1.2045,-1.2076,-1.2087,-1.1974,-1.1974,-1.1974,0,0,-1.1753,-1.1762,-1.1781,-1.1813,-1.1824,-1.1853,-1.1818,-1.1852,-1.1874,-1.1849,-1.1893,-1.19,-1.1917,-1.197,-1.1993,-1.1977,-1.2077,-1.2045,-1.205,-1.2053,-1.2082,-1.2093,-1.2102,-1.1977,-1.1977,-1.1976,0,0,-1.1825,-1.1834,-1.1874,-1.1885,-1.1902,-1.1901,-1.1911,-1.1924,-1.1927,-1.1971,-1.1953,-1.1979,-1.2027,-1.204,-1.2054,-1.2129,-1.2115,-1.2138,-1.218,-1.221,-1.2219,-1.2227,-1.2254,-1.2264,-1.2144,-1.2144,-1.2144,0,-1.1861,-1.1905,-1.1896,-1.193,-1.1945,-1.1923,-1.1963,-1.1975,-1.2,-1.201,-1.1992,-1.2051,-1.2062,-1.2116,-1.2135,-1.2146,-1.2157,-1.2136,-1.2218,-1.2226,-1.2233,-1.2259,-1.2269,-1.2147,-1.2147,-1.2146,-1.2146,0,-1.1949,-1.1979,-1.2009,-1.2033,-1.205,-1.2088,-1.2085,-1.2104,-1.2096,-1.2098,-1.2142,-1.2154,-1.2182,-1.2194,-1.2187,-1.2248,-1.2238,-1.2219,-1.2187,-1.2247,-1.2271,-1.2281,-1.2151,-1.215,-1.2149,-1.2148,0,0,-1.2046,-1.2063,-1.2075,-1.2085,-1.2101,-1.2125,-1.2161,-1.2188,-1.2204,-1.2222,-1.2253,-1.2293,-1.2275,-1.229,-1.2284,-1.2311,-1.237,-1.2289,-1.2289,-1.2304,-1.2439,-1.2453,-1.2465,-1.2361,-1.2363,-1.2364,-1.2437,0,-1.2118,-1.218,-1.2173,-1.2232,-1.2261,-1.224,-1.2272,-1.2286,-1.2288,-1.2313,-1.2316,-1.2345,-1.2319,-1.2328,-1.2353,-1.2358,-1.2398,-1.2352,-1.239,-1.2391,-1.2386,-1.2477,-1.2493,-1.2561,-1.2447,-1.2448,-1.2449,0,-1.2211,-1.2231,-1.2293,-1.2305,-1.2316,-1.2345,-1.2368,-1.2392,-1.2407,-1.2407,-1.2423,-1.2413,-1.2449,-1.2416,-1.2467,-1.2436,-1.2451,-1.2455,-1.2458,-1.2461,-1.2424,-1.2484,-1.2583,-1.2594,-1.2464,-1.2463,-1.2462,0,-1.2276,-1.2318,-1.2361,-1.237,-1.2385,-1.2406,-1.2413,-1.2426,-1.2442,-1.2463,-1.2473,-1.2498,-1.2512,-1.2532,-1.2528,-1.2504,-1.258,-1.2546,-1.2581,-1.2582,-1.2599,-1.2598,-1.2702,-1.2608,-1.2608,-1.2608,-1.2607,0,-1.2357,-1.2396,-1.239,-1.2417,-1.246,-1.2451,-1.2494,-1.2499,-1.2511,-1.2538,-1.2522,-1.2548,-1.2541,-1.2567,-1.2565,-1.2607,-1.2614,-1.2615,-1.2614,-1.2617,-1.2617,-1.2627,-1.2622,-1.261,-1.261,-1.2609,-1.2609,0,-1.2438,-1.2435,-1.248,-1.249,-1.2494,-1.2525,-1.2534,-1.2559,-1.2559,-1.2594,-1.2602,-1.2603,-1.2633,-1.2631,-1.2665,-1.2663,-1.2716,-1.2709,-1.271,-1.2709,-1.2745,-1.2741,-1.2859,-1.2875,-1.277,-1.2771,-1.2772,0,-1.249,-1.2519,-1.2532,-1.2549,-1.2557,-1.2584,-1.26,-1.2593,-1.261,-1.263,-1.2652,-1.268,-1.2702,-1.2751,-1.2755,-1.2781,-1.2775,-1.2815,-1.2779,-1.2781,-1.2776,-1.2774,-1.2777,-1.2822,-1.2823,-1.2824,-1.2825,0,-1.2584,-1.2581,-1.2604,-1.2627,-1.2646,-1.2664,-1.268,-1.2695,-1.2689,-1.2709,-1.2739,-1.2756,-1.279,-1.2818,-1.2842,-1.2851,-1.2837,-1.2836,-1.2845,-1.2849,-1.2848,-1.2849,-1.273,-1.2833,-1.2833,-1.2832,-1.2831,-1.2831,-1.2652,-1.2677,-1.2689,-1.2716,-1.2727,-1.2742,-1.2766,-1.2769,-1.2793,-1.282,-1.2814,-1.2848,-1.2862,-1.2893,-1.2904,-1.293,-1.2916,-1.293,-1.2933,-1.2937,-1.2941,-1.2844,-1.2934,-1.2934,-1.2934,-1.2934,-1.2934,0,-1.2745,-1.2751,-1.2776,-1.2798,-1.2819,-1.2803,-1.282,-1.2839,-1.2868,-1.2882,-1.2904,-1.2938,-1.2965,-1.2971,-1.2997,-1.3017,-1.3012,-1.3025,-1.3023,-1.3025,-1.2952,-1.2941,-1.3029,-1.3029,-1.3029,-1.3029,-1.3029,-1.3028,-1.2795,-1.2837,-1.2835,-1.2882,-1.2888,-1.292,-1.2931,-1.2946,-1.2957,-1.2995,-1.3017,-1.3021,-1.3032,-1.3058,-1.3083,-1.3084,-1.3094,-1.311,-1.3109,-1.304,-1.3031,-1.3022,-1.3011,-1.3112,-1.3112,-1.318,-1.318,-1.3181]},{"header":{"parameterUnit":"m.s-1","parameterCategory":1,"la1":30.2991,"la2":30.254,"lo1":-89.0895,"lo2":-89.0444,"dy":0.0017,"dx":0.0017,"nx":28,"ny":28,"refTime":"2024-03-11T03:00:00:Z","depth":0,"parameterNumber":3,"parameterNumberName":"V-component_of_WINDS"},"data":[0,0,0,0,0,0,0,0,0,0,0,0,0,0,0,0,0,0,0,0,0,0,0,0,0,0,0,0,0,0,0,0,0,0,0,0,0,0,0,0,0,0,0,0,0,0,0,0,0,0,0,0,0,0,0,0,0,0,2.0429,2.0429,0,2.0429,2.0429,2.0429,2.0401,2.04,2.04,2.0399,2.0398,2.0399,2.04,0,0,0,0,0,0,0,0,0,0,0,0,0,2.0401,2.0402,2.0429,2.0429,2.0429,2.0429,2.0429,2.0429,2.0401,2.04,2.0399,2.0398,2.0398,2.0399,2.04,0,0,0,0,0,0,0,0,0,0,0,0,0,2.0408,2.0402,2.0429,2.0415,2.0414,2.0429,2.0429,2.0429,2.0401,2.04,2.0399,2.0398,2.0398,2.0399,2.04,2.0429,0,0,2.0403,2.0403,0,0,0,0,0,0,0,0,2.0408,2.041,2.0417,2.0416,2.0414,2.0414,2.0419,2.0429,2.0402,2.0406,2.0399,2.0397,2.0404,2.0405,2.0407,2.0429,2.0429,2.0403,2.0404,2.0404,2.0404,0,0,0,0,0,0,0,2.0408,2.0409,2.0429,2.0417,2.0416,2.0408,2.0408,2.0421,2.0411,2.0406,2.0403,2.0404,2.0403,2.0406,2.0407,2.0429,2.0403,2.0404,2.0405,2.0405,2.0471,2.0473,0,0,0,0,0,0,2.0409,2.0409,2.0429,2.0429,2.0408,2.0409,2.0409,2.0415,2.0411,2.041,2.0405,2.0403,2.0405,2.0406,2.0407,2.0439,2.0404,2.0405,2.0406,2.047,2.0472,2.0473,0,0,0,0,0,0,2.0409,2.0411,2.0429,2.0419,2.042,2.0411,2.0418,2.0416,2.0419,2.0411,2.0409,2.041,2.0404,2.0406,2.0423,2.0438,2.0406,2.0407,2.0469,2.0471,2.0472,2.0504,0,0,0,0,0,0,2.0408,2.0411,2.0423,2.0419,2.0421,2.0446,2.0419,2.0417,2.0421,2.0418,2.0415,2.0413,2.0404,2.0422,2.0424,2.0439,2.0407,2.0467,2.047,2.0472,2.0501,2.0506,2.0511,0,0,0,0,0,2.0407,2.0432,2.0424,2.0426,2.0435,2.0447,2.0448,2.0436,2.0422,2.0433,2.0428,2.0413,2.0437,2.0424,2.0426,2.0442,2.0466,2.0469,2.0472,2.0499,2.0505,2.0511,0,0,0,0,0,0,2.0438,2.0431,2.0422,2.0446,2.0447,2.0442,2.0456,2.0444,2.0449,2.0446,2.0431,2.043,2.045,2.0448,2.0434,2.0469,2.0449,2.0452,2.0469,2.0475,2.0479,2.0479,2.0408,0,0,0,0,0,2.0448,2.0458,2.0452,2.0474,2.0475,2.0465,2.047,2.0461,2.0461,2.0461,2.0457,2.0458,2.0465,2.047,2.0476,2.0501,2.0499,2.0513,2.0518,2.0522,2.0524,2.0535,2.0541,2.0481,2.0481,2.0481,0,0,2.0468,2.0465,2.0473,2.048,2.048,2.049,2.0466,2.0478,2.0485,2.0463,2.0479,2.0476,2.0476,2.0496,2.0505,2.0495,2.054,2.0525,2.0528,2.0528,2.0538,2.0544,2.0549,2.0483,2.0483,2.0483,0,0,2.0509,2.0509,2.0526,2.0526,2.0526,2.0519,2.0524,2.052,2.0517,2.0533,2.0516,2.0524,2.0537,2.0537,2.0538,2.0578,2.0564,2.058,2.0604,2.0615,2.062,2.0624,2.0636,2.0641,2.0583,2.0583,2.0583,0,2.0533,2.0549,2.0537,2.055,2.0552,2.0533,2.0549,2.055,2.0552,2.0554,2.0543,2.0558,2.0556,2.0575,2.0585,2.0588,2.059,2.058,2.062,2.0624,2.0627,2.0639,2.0644,2.0585,2.0585,2.0585,2.0584,0,2.0578,2.0589,2.0603,2.0604,2.0609,2.0624,2.0613,2.0619,2.0609,2.0603,2.0619,2.0616,2.062,2.0625,2.0616,2.0642,2.0636,2.0623,2.0602,2.0635,2.0645,2.065,2.0588,2.0587,2.0586,2.0586,0,0,2.0639,2.0633,2.0638,2.0637,2.0635,2.0643,2.0656,2.0661,2.0665,2.0667,2.0676,2.0687,2.0675,2.0676,2.0667,2.0677,2.0706,2.0662,2.0662,2.0669,2.0733,2.0741,2.0747,2.0697,2.0698,2.0699,2.0732,0,2.0677,2.0699,2.0688,2.0712,2.072,2.0701,2.0713,2.0712,2.0707,2.0712,2.0706,2.0714,2.0698,2.0698,2.0707,2.0701,2.0718,2.0698,2.0705,2.0705,2.0704,2.0752,2.0762,2.0793,2.0736,2.0737,2.0737,0,2.0725,2.0728,2.0752,2.0746,2.0749,2.076,2.0762,2.0768,2.0767,2.0762,2.0763,2.0751,2.0763,2.0743,2.0758,2.0745,2.0747,2.0744,2.0745,2.0743,2.0722,2.0751,2.0803,2.0807,2.0744,2.0743,2.0743,0,2.0764,2.0774,2.0789,2.079,2.0784,2.0792,2.079,2.0787,2.079,2.0791,2.0793,2.0796,2.0797,2.08,2.0788,2.0776,2.0804,2.0784,2.0799,2.0799,2.0804,2.0804,2.0856,2.0809,2.0809,2.0808,2.0808,0,2.0807,2.0822,2.0807,2.0816,2.0832,2.0818,2.0834,2.083,2.0827,2.0834,2.0819,2.0826,2.0811,2.0816,2.0808,2.082,2.0821,2.0817,2.0814,2.0817,2.0817,2.0817,2.0814,2.081,2.0809,2.0809,2.0809,0,2.0853,2.0844,2.0859,2.0852,2.085,2.0862,2.0856,2.0863,2.0857,2.0866,2.0867,2.0856,2.0862,2.0851,2.0855,2.0849,2.0865,2.086,2.0866,2.0864,2.0878,2.0876,2.0931,2.0936,2.0887,2.0887,2.0888,0,2.088,2.0891,2.0885,2.0889,2.0887,2.0894,2.0896,2.0883,2.0886,2.0884,2.0892,2.0896,2.0898,2.0907,2.0899,2.0901,2.0895,2.0914,2.0895,2.0897,2.0893,2.0892,2.0892,2.0917,2.0918,2.0918,2.0919,0,2.0929,2.0924,2.0928,2.093,2.0933,2.0934,2.0934,2.0938,2.0924,2.0928,2.0933,2.0935,2.0938,2.0941,2.0942,2.0939,2.0926,2.0925,2.0928,2.093,2.0933,2.093,2.0874,2.0923,2.0923,2.0922,2.0922,2.0922,2.0965,2.0973,2.097,2.0974,2.0973,2.0973,2.0979,2.0973,2.0977,2.0978,2.097,2.0977,2.0973,2.0972,2.097,2.0974,2.0966,2.0971,2.0972,2.0973,2.0974,2.0933,2.0975,2.0975,2.0974,2.0974,2.0974,0,2.1012,2.1008,2.1013,2.1012,2.1016,2.1004,2.1003,2.1006,2.1012,2.1009,2.1012,2.1016,2.1019,2.1011,2.1013,2.1017,2.1011,2.1018,2.1017,2.1016,2.0983,2.0979,2.1023,2.1023,2.1023,2.1023,2.1023,2.1023,2.1036,2.1048,2.1042,2.1053,2.1049,2.1055,2.1055,2.1054,2.1052,2.1058,2.106,2.1055,2.105,2.1051,2.1053,2.105,2.105,2.1059,2.1054,2.1023,2.1018,2.1014,2.101,2.106,2.106,2.1086,2.1087,2.1087]}]]